STARLINK-2007 (47602 NORAD) Tracking and Keplerian Element Data
This shows tracking and keplerian element data for the satellite.
Feedback or suggestion? Click here.
Element | Value |
Catalog | 47602 |
Name | STARLINK-2007 |
Epoch Orbit | 176 |
Epoch Day | 59.91667824 |
Epoch Year | 2021 |
RAAN | 2.9473 |
Inclination | 53.0541 |
Eccentricity | 0.0001046 |
Argument of Perigee | 70.9485 |
Mean Anonmoly | 278.4238 |
Mean Motion | 15.62800395 |
Decay Rate | -0.00032114 |
L1 | 1 47602U 21009BG 21059.91667824 -.00032114 00000-0 -34564-3 0 9999 |
L2 | 2 47602 53.0541 2.9473 0001046 70.9485 278.4238 15.62800395 1765 |
Live tracking and technical data element details for STARLINK-2007 (NORAD 47602). STARLINK-2007 can be tracked NOW for your location showing map with azimuth and elevation plus other details from your city location.
Track the satellite on the map from your city or location and see movement details for azimuth, elevation, latitude, longitude, range, height, and movement on the map or in text.
IsCatalogInMostPopularTable: catalog: 47602, numindb: 4
Update: records affected: 1
GetName: 47602 STARLINK-2007
Hit Count: updated at: Mon, 01 Mar 2021 15:48:39 GMT